This demonstration page uses our WeatherBlox Daily Observations layout. Learn more.

Left ArrowRight Arrow

39.29038, -76.61219

Hourly Observations for July 12, 2021

Temp ( °F °C ) Dew Point ( °F °C ) Humidity (%) Winds ( mph kmh ) Pressure ( in mb ) Visibility ( mi km ) Precip ( " mm )
12:54 am 00:54 Mostly Clear 80 26.7 75 23.9 85 85 VRB 3 6 30.01 1016 10 16 N/A
1:54 am 01:54 Mostly Clear 80 26.7 73 22.8 79 79 SSW 6 9 30.00 1016 10 16 N/A
2:54 am 02:54 Mostly Clear 79 26.1 72 22.2 79 79 VRB 7 11 30.02 1017 10 16 N/A
3:54 am 03:54 Mostly Clear 78 25.6 72 22.2 82 82 S 5 7 30.01 1016 10 16 N/A
4:54 am 04:54 Clear 78 25.6 72 22.2 82 82 SSW 3 6 30.02 1017 10 16 N/A
5:54 am 05:54 Partly Cloudy 77 25 72 22.2 85 85 N N/A 30.03 1017 10 16 N/A
6:54 am 06:54 Partly Cloudy 78 25.6 73 22.8 85 85 SW 5 7 30.05 1018 8 13 N/A
7:17 am 07:17 Mostly Cloudy 79 26.1 73 22.8 82 82 SSW 5 7 30.05 1018 10 16 N/A
7:54 am 07:54 Mostly Cloudy 79 26.1 73 22.8 82 82 SW 7 11 30.06 1018 10 16 N/A
8:25 am 08:25 Mostly Cloudy 81 27.2 74 23.3 79 79 VRB 6 9 30.06 1018 10 16 N/A
8:54 am 08:54 Mostly Cloudy 83 28.3 74 23.3 74 74 WSW 6 9 30.07 1018 10 16 N/A
9:54 am 09:54 Mostly Cloudy 86 30 75 23.9 70 70 SSW 6 9 30.09 1019 10 16 N/A
10:54 am 10:54 Mostly Cloudy 87 30.6 75 23.9 67 67 WSW 8 13 30.09 1019 10 16 N/A
11:54 am 11:54 Partly Cloudy 90 32.2 75 23.9 62 62 S 8 13 30.09 1019 10 16 N/A
12:54 pm 12:54 Partly Cloudy 92 33.3 75 23.9 58 58 SSW 10 17 30.09 1019 10 16 N/A
1:54 pm 13:54 Partly Cloudy 92 33.3 75 23.9 58 58 S 9 15 30.08 1019 10 16 N/A
2:54 pm 14:54 Partly Cloudy 94 34.4 74 23.3 52 52 SSW 8 13 30.06 1018 10 16 N/A
3:54 pm 15:54 Partly Cloudy 95 35 73 22.8 49 49 SSW 7 11 30.06 1018 10 16 N/A
4:54 pm 16:54 Partly Cloudy 94 34.4 72 22.2 49 49 SW 7 11 30.06 1018 10 16 N/A
5:54 pm 17:54 Partly Cloudy 92 33.3 72 22.2 52 52 SSW 9 15 30.05 1018 10 16 N/A
6:30 pm 18:30 Partly Cloudy with Thunderstorms 91 32.8 72 22.2 54 54 SSW 7 11 30.05 1018 10 16 N/A
6:54 pm 18:54 Mostly Cloudy with Thunderstorms 90 32.2 72 22.2 56 56 WSW 13 20 30.07 1018 10 16 N/A
7:05 pm 19:05 Mostly Cloudy 86 30 73 22.8 65 65 W 9 15 30.06 1018 10 16 N/A
7:54 pm 19:54 Partly Cloudy 84 28.9 72 22.2 67 67 NNW 5 7 30.07 1018 10 16 N/A
8:54 pm 20:54 Mostly Cloudy 82 27.8 72 22.2 72 72 NNE 3 6 30.11 1020 10 16 N/A
9:54 pm 21:54 Mostly Cloudy with Light Rain 81 27.2 73 22.8 77 77 E 9 15 30.14 1021 8 13 0.00 0.00
10:54 pm 22:54 Mostly Cloudy 82 27.8 74 23.3 77 77 ESE 6 9 30.12 1020 10 16 0.00 0.00
11:54 pm 23:54 Mostly Cloudy 79 26.1 74 23.3 85 85 N N/A 30.13 1020 10 16 N/A

Powered by AerisWeather